SCP
0 0 0 0 0 0 0 0 0 0 1 1 2 2 2 2 3 3 5 5 6 3 3 4 8 6 9 7 4 4 8 5 4 4 3 3 0 0 1 0 1 1 1
0 0 0 0 0 0 0 0 0 0 1 1 3 3 4 4 4 3 5 5 5 5 4 4 6 6 7 7 5 6 3 4 5 5 3 6 5 2 1 1 1 3 2
0 0 0 0 0 0 0 0 0 0 1 1 3 5 4 7 4 4 5 5 5 5 5 5 5 8 10 8 11 9 6 4 4 8 7 11 6 12 5 3 1 2 2
0 0 0 0 0 0 0 0 0 0 0 1 1 3 4 4 4 4 4 6 5 4 5 5 6 8 7 6 10 10 9 10 7 6 6 6 4 3 3 6 6 7 2
0 0 0 0 0 0 0 0 0 0 0 1 2 1 2 2 3 4 4 7 9 6 3 6 7 8 9 8 9 8 8 5 6 4 4 3 3 4 1 1 1 2 2
0 0 0 0 0 0 0 0 0 0 0 0 1 2 3 3 4 5 5 5 6 10 8 5 9 10 11 11 9 10 8 7 5 3 2 2 1 1 2 1 1 1 1
0 0 0 0 0 0 0 0 0 0 0 0 0 1 2 3 4 5 5 5 5 7 12 8 10 12 11 8 7 8 8 9 6 6 3 2 2 1 1 1 1 1 1
0 0 0 0 0 0 0 0 0 0 0 0 0 0 1 1 1 3 4 4 5 5 10 15 12 8 8 6 7 7 7 6 4 4 5 2 2 2 2 1 1 1 1
0 0 0 0 0 0 0 0 0 0 0 0 0 0 0 1 1 3 6 6 6 6 5 11 11 10 9 8 6 6 6 6 5 4 4 3 2 2 2 3 2 1 0
0 0 0 0 0 0 0 0 0 0 0 0 0 0 1 0 1 3 5 7 7 8 10 10 10 9 6 4 6 5 5 5 6 5 5 4 3 3 4 4 3 1 1
0 0 0 0 0 0 0 0 0 0 0 0 0 0 1 1 3 2 3 5 7 7 4 5 6 4 4 6 6 5 4 4 5 5 5 4 4 4 3 4 3 2 1
0 0 0 0 0 0 0 0 0 0 0 0 0 0 0 1 1 2 3 2 5 5 4 4 3 3 3 6 5 4 3 3 4 4 5 5 7 4 4 5 3 2 2
0 0 0 0 0 0 0 0 0 0 0 0 0 0 0 0 1 1 1 1 3 2 1 1 1 1 1 2 2 2 2 2 2 3 3 3 3 3 3 2 2 2 2
0 0 0 0 0 0 0 0 0 0 0 0 0 0 0 0 0 0 0 0 0 2 2 1 1 2 2 2 2 1 2 2 1 1 2 2 2 2 2 2 2 1 1
0 0 0 0 0 0 0 0 0 0 0 0 0 0 0 0 0 0 0 0 0 0 1 2 2 1 1 1 1 1 1 1 1 2 2 1 0 0 0 0 0 0 0
0 0 0 0 0 0 0 0 0 0 0 0 0 0 0 0 0 0 0 -0 -0 0 0 0 0 0 1 0 0 1 1 1 1 1 0 0 0 0 0 0 0 0 0
0 0 0 0 0 0 0 0 0 0 0 0 0 0 0 0 0 0 0 0 0 0 0 0 1 1 2 0 0 0 1 1 1 1 1 0 0 0 0 0 0 0 0
0 0 0 0 0 0 0 0 0 0 0 0 0 0 0 0 0 0 0 0 0 0 0 0 0 0 0 0 0 0 1 1 1 1 1 0 0 0 0 0 0 0 0
0 0 0 0 0 0 0 0 0 0 0 0 0 0 0 0 0 0 0 0 1 1 1 0 -0 0 0 0 0 0 0 1 1 0 0 0 0 0 0 0 0 0 0
0 0 0 0 0 0 0 0 0 0 0 0 0 0 0 0 0 0 0 0 1 1 1 1 0 0 1 0 0 0 0 1 0 1 1 0 0 0 0 0 0 0 0
0 0 0 0 0 0 0 0 0 0 0 0 0 0 0 0 0 0 0 0 0 1 1 1 1 1 1 1 0 0 0 0 0 0 0 0 0 0 0 0 0 0 0
0 0 0 0 0 0 0 0 0 -0 0 0 0 0 0 0 0 0 0 0 0 0 1 1 2 1 1 1 0 0 0 0 1 0 0 0 0 0 0 0 0 0 0
-0 0 0 0 0 0 0 0 -0 -0 -0 -0 -0 0 0 0 0 0 0 0 0 0 1 1 1 1 1 1 0 0 0 0 0 1 0 0 0 0 0 0 0 0 0
0 -0 -0 0 0 0 0 0 0 -0 -0 -0 -0 -0 -0 0 0 0 0 0 0 0 0 1 1 1 1 1 1 0 0 0 0 0 0 0 0 0 0 0 0 0 -0
-0 0 0 0 0 0 0 0 0 0 0 -0 -0 -0 -0 -0 0 0 0 0 0 0 0 1 1 1 1 1 1 1 1 0 0 0 0 0 0 0 0 0 -0 -0 -0
0 0 0 0 0 0 0 0 0 0 0 0 0 0 0 0 0 0 0 0 0 0 0 0 0 0 0 0 0 0 0 0 0 0 0 0 0 0 0 0 -0 -0 -0
Wind_Speed_500mb
34 32 29 25 23 19 19 23 27 36 46 41 45 47 48 49 53 56 59 59 64 60 60 72 75 73 87 79 75 55 54 48 39 37 30 26 23 19 25 21 9 14 17
36 34 31 13 15 24 22 20 23 26 33 35 49 56 53 54 53 52 55 59 62 63 54 62 64 83 83 83 68 61 55 52 40 36 25 28 20 21 13 14 9 5 4
37 32 11 15 20 22 24 23 24 25 30 33 40 50 52 58 55 56 55 56 61 62 61 60 66 65 75 66 74 70 62 43 38 54 33 19 32 27 28 19 18 29 14
8 7 11 18 19 22 20 23 26 29 30 32 34 49 57 61 65 66 61 61 61 61 61 65 64 74 65 64 72 65 62 60 47 45 48 50 48 41 42 60 53 49 43
3 12 15 18 23 23 23 23 25 29 32 34 39 41 49 62 64 65 65 64 58 64 61 66 70 70 72 62 61 58 58 53 62 54 50 54 55 55 41 50 54 58 63
12 17 18 24 29 28 30 28 29 31 31 33 37 44 54 60 56 63 66 65 65 67 70 63 71 75 74 69 70 64 67 74 63 52 65 55 47 51 55 58 62 70 73
19 19 21 28 31 35 36 37 35 36 37 38 40 44 50 58 65 71 63 64 68 69 73 68 74 76 80 73 76 67 70 73 65 76 70 66 66 66 63 57 61 60 60
15 20 27 31 35 35 38 39 37 38 39 41 43 43 47 49 56 60 67 70 71 71 67 79 77 80 74 70 68 59 62 58 62 70 71 62 61 62 58 57 60 56 51
19 30 36 37 34 34 35 35 36 34 34 38 41 41 42 46 55 62 62 67 77 69 77 80 79 83 78 72 64 57 57 55 57 52 60 62 49 49 51 52 51 48 51
29 40 43 42 37 34 30 28 27 32 34 34 35 36 34 38 44 50 60 63 67 74 62 81 72 80 74 64 59 61 59 57 59 56 53 57 53 51 56 57 56 51 50
35 43 42 36 35 31 28 26 26 27 29 31 33 34 32 28 27 40 48 54 67 75 83 47 61 64 60 56 59 54 49 49 54 56 50 49 51 49 48 52 56 51 55
35 40 36 35 35 35 31 33 31 31 30 31 33 29 27 25 28 31 34 37 41 42 45 45 44 47 46 46 47 43 44 45 44 41 46 46 45 50 54 62 57 57 58
35 33 33 38 35 39 33 34 38 37 35 34 33 33 32 28 32 24 33 37 45 37 42 45 47 48 47 45 41 37 38 41 42 38 42 39 41 44 46 47 45 39 36
35 35 40 42 42 44 39 40 44 44 41 39 38 38 38 41 50 42 40 49 40 30 36 39 40 42 41 39 38 37 35 35 39 35 33 31 26 26 25 24 26 29 31
40 40 42 45 47 49 54 50 53 50 46 47 46 46 45 42 48 66 68 76 67 25 18 27 30 37 39 38 39 37 35 35 34 31 28 27 27 30 30 23 22 28 28
43 49 53 56 57 57 57 56 55 55 55 53 53 52 50 47 43 47 66 74 58 70 52 33 36 39 33 39 45 43 39 38 36 34 27 24 30 31 31 28 28 30 30
54 58 61 59 58 61 62 64 64 62 60 62 62 59 56 53 50 45 54 59 66 74 63 59 56 53 43 46 51 50 46 43 41 36 32 28 22 16 17 15 21 22 21
52 57 64 69 71 70 71 70 71 73 68 67 67 66 62 59 55 55 56 62 61 60 82 70 76 70 56 48 62 50 48 46 44 37 34 30 24 22 19 18 19 21 22
67 74 75 77 79 76 74 71 72 72 77 77 74 72 66 64 60 61 62 64 62 70 77 98 112 100 86 74 62 61 64 51 44 40 37 36 32 29 32 25 23 24 26
74 78 81 84 79 75 74 76 74 74 78 77 79 74 71 66 61 61 64 63 63 63 71 74 78 85 86 81 71 75 69 60 48 44 45 46 42 36 39 35 32 29 29
78 81 86 88 86 83 76 77 79 90 79 70 65 66 67 62 66 65 62 62 62 59 65 64 65 67 72 78 83 72 71 59 58 53 48 46 48 46 47 43 42 40 40
84 82 72 70 75 85 93 92 88 75 77 71 69 67 56 55 66 69 74 66 66 61 67 65 60 58 59 61 69 78 84 81 62 59 51 49 47 46 45 44 47 43 46
81 72 80 93 85 80 80 82 75 64 64 77 59 59 67 63 65 70 77 71 66 74 64 65 62 59 53 52 60 69 80 85 86 67 58 52 48 47 46 53 55 53 55
73 92 90 89 79 86 84 84 75 75 67 57 62 66 71 63 62 62 63 74 63 64 71 64 66 61 58 54 52 54 70 75 76 81 75 57 57 53 44 48 49 52 51
92 79 83 93 76 79 76 70 63 57 65 71 65 62 64 69 69 67 68 73 73 68 58 73 61 58 61 60 57 50 53 59 65 57 59 48 51 45 48 49 47 46 46
87 91 81 77 76 75 72 68 61 50 57 63 65 67 70 67 68 67 67 72 75 79 84 68 53 60 37 61 66 62 54 48 51 56 46 47 45 48 51 52 49 46 46
Wind_Direction_500mb
248 248 248 245 272 295 299 293 281 275 263 243 243 244 244 242 237 234 232 229 233 232 233 223 219 217 234 239 237 219 216 229 218 214 233 244 253 273 272 277 250 264 286
249 252 243 227 267 282 286 288 283 272 265 252 247 241 243 242 239 237 235 231 229 236 236 224 223 229 232 227 225 231 236 229 219 219 219 227 236 250 250 247 242 203 237
259 255 242 271 269 273 281 291 296 289 277 263 243 246 244 241 240 237 237 234 231 231 231 227 217 226 226 225 231 233 233 224 215 219 222 223 239 238 265 285 275 263 239
198 235 268 268 276 283 289 297 299 298 291 287 262 241 243 241 239 240 239 235 236 228 230 226 228 215 227 219 234 228 234 227 213 227 236 235 251 241 245 250 245 261 273
266 257 265 279 285 291 299 301 304 305 299 284 264 257 253 247 246 245 244 238 235 242 230 228 222 226 219 222 212 224 220 220 224 236 238 242 238 241 239 249 251 262 260
266 265 274 287 290 296 300 300 302 302 301 298 284 270 259 243 246 248 243 241 234 233 243 227 228 223 226 216 214 220 233 239 234 233 233 236 237 238 246 253 263 259 261
256 271 282 293 300 298 300 299 298 297 296 295 289 281 273 268 256 243 247 245 238 228 226 234 225 224 228 213 224 227 229 233 228 224 232 238 248 249 247 251 256 261 264
270 296 291 295 298 299 301 301 298 296 294 291 290 284 272 268 262 261 247 246 246 239 234 234 230 222 224 226 226 220 224 226 232 236 238 240 246 243 246 248 257 262 257
291 292 296 299 299 301 301 301 296 297 299 296 295 292 282 268 258 247 249 249 237 241 240 234 229 225 221 226 230 227 229 228 238 240 250 249 244 240 245 247 242 243 258
284 296 300 294 296 299 304 308 303 292 295 302 300 299 289 284 274 264 250 241 237 236 245 231 226 223 225 225 222 224 227 232 233 234 238 242 244 247 243 242 242 239 247
293 302 294 291 293 295 302 309 308 301 297 298 304 307 298 277 278 267 258 247 241 235 229 235 225 222 222 218 220 220 225 237 240 236 236 243 245 238 239 239 242 239 244
299 285 287 293 291 291 295 301 305 306 304 302 299 297 310 294 282 279 257 241 220 213 207 209 205 206 207 207 209 213 222 231 236 238 242 240 239 242 240 239 246 244 241
281 275 281 281 289 291 288 292 293 294 297 300 300 294 288 290 270 243 256 249 199 202 202 203 203 204 206 205 208 211 219 225 234 234 243 242 242 244 246 245 246 250 258
282 279 281 284 290 289 286 283 283 285 287 291 291 289 290 285 265 254 293 268 259 196 204 204 203 199 198 202 203 209 213 219 226 231 219 235 229 231 236 240 248 252 255
277 279 281 289 288 283 282 279 282 284 285 288 287 283 282 287 283 254 268 283 295 326 277 230 219 203 198 200 202 204 206 212 217 216 214 227 221 216 215 221 238 237 249
292 297 295 290 289 286 282 279 279 281 282 282 285 284 279 274 275 261 256 264 269 271 272 253 240 252 197 208 206 196 201 204 207 203 196 210 223 226 233 239 249 258 266
293 292 288 288 288 284 280 279 279 276 275 275 279 281 278 271 264 262 258 254 250 251 251 262 244 228 222 226 220 214 197 196 195 190 187 192 220 227 239 261 270 274 288
297 298 296 293 287 286 285 281 280 278 278 280 273 275 271 269 263 253 249 248 242 233 235 243 239 238 229 208 237 213 194 199 188 191 194 198 206 220 219 226 254 266 274
301 296 295 294 293 290 287 281 280 275 274 269 270 268 271 269 261 257 249 246 243 232 230 241 246 243 236 225 212 213 198 202 197 200 208 217 220 222 242 253 260 271 280
299 297 295 293 292 290 290 289 284 276 274 267 267 264 261 265 265 256 256 248 246 242 231 234 237 246 234 225 215 217 208 203 205 211 217 226 227 237 248 260 266 270 283
299 298 297 294 293 292 290 288 286 280 267 266 266 256 254 262 260 261 256 251 247 245 237 232 235 237 239 224 219 218 219 215 216 219 227 232 243 250 252 262 262 275 290
303 302 304 301 297 294 291 286 280 276 280 265 257 253 248 247 257 253 258 259 245 251 242 235 228 226 230 229 225 219 218 221 218 222 229 235 247 251 259 263 269 278 287
308 307 306 302 298 295 292 286 286 280 280 266 262 263 254 253 250 242 245 250 248 244 243 233 227 223 218 219 229 220 224 228 222 221 232 236 242 245 251 260 268 276 281
309 308 305 299 296 298 292 287 281 280 275 256 261 269 256 248 244 238 241 241 241 240 238 228 225 222 221 216 220 223 221 227 228 225 221 228 241 246 247 254 266 275 281
311 307 302 302 299 300 294 294 287 284 272 269 264 256 252 256 244 243 243 239 236 231 232 225 226 222 228 225 217 215 219 221 224 221 220 228 232 238 247 255 262 267 272
308 310 305 303 300 300 297 294 282 276 268 261 260 253 255 245 246 249 246 241 233 236 227 228 224 218 225 218 225 222 224 225 220 216 215 223 228 236 245 252 259 263 266
Wind_Speed_850mb
34 32 29 25 23 19 19 23 27 36 46 41 45 47 48 49 53 56 59 59 64 60 60 72 75 73 87 79 75 55 54 48 39 37 30 26 23 19 25 21 9 14 17
36 34 31 13 15 24 22 20 23 26 33 35 49 56 53 54 53 52 55 59 62 63 54 62 64 83 83 83 68 61 55 52 40 36 25 28 20 21 13 14 9 5 4
37 32 11 15 20 22 24 23 24 25 30 33 40 50 52 58 55 56 55 56 61 62 61 60 66 65 75 66 74 70 62 43 38 54 33 19 32 27 28 19 18 29 14
8 7 11 18 19 22 20 23 26 29 30 32 34 49 57 61 65 66 61 61 61 61 61 65 64 74 65 64 72 65 62 60 47 45 48 50 48 41 42 60 53 49 43
3 12 15 18 23 23 23 23 25 29 32 34 39 41 49 62 64 65 65 64 58 64 61 66 70 70 72 62 61 58 58 53 62 54 50 54 55 55 41 50 54 58 63
12 17 18 24 29 28 30 28 29 31 31 33 37 44 54 60 56 63 66 65 65 67 70 63 71 75 74 69 70 64 67 74 63 52 65 55 47 51 55 58 62 70 73
19 19 21 28 31 35 36 37 35 36 37 38 40 44 50 58 65 71 63 64 68 69 73 68 74 76 80 73 76 67 70 73 65 76 70 66 66 66 63 57 61 60 60
15 20 27 31 35 35 38 39 37 38 39 41 43 43 47 49 56 60 67 70 71 71 67 79 77 80 74 70 68 59 62 58 62 70 71 62 61 62 58 57 60 56 51
19 30 36 37 34 34 35 35 36 34 34 38 41 41 42 46 55 62 62 67 77 69 77 80 79 83 78 72 64 57 57 55 57 52 60 62 49 49 51 52 51 48 51
29 40 43 42 37 34 30 28 27 32 34 34 35 36 34 38 44 50 60 63 67 74 62 81 72 80 74 64 59 61 59 57 59 56 53 57 53 51 56 57 56 51 50
35 43 42 36 35 31 28 26 26 27 29 31 33 34 32 28 27 40 48 54 67 75 83 47 61 64 60 56 59 54 49 49 54 56 50 49 51 49 48 52 56 51 55
35 40 36 35 35 35 31 33 31 31 30 31 33 29 27 25 28 31 34 37 41 42 45 45 44 47 46 46 47 43 44 45 44 41 46 46 45 50 54 62 57 57 58
35 33 33 38 35 39 33 34 38 37 35 34 33 33 32 28 32 24 33 37 45 37 42 45 47 48 47 45 41 37 38 41 42 38 42 39 41 44 46 47 45 39 36
35 35 40 42 42 44 39 40 44 44 41 39 38 38 38 41 50 42 40 49 40 30 36 39 40 42 41 39 38 37 35 35 39 35 33 31 26 26 25 24 26 29 31
40 40 42 45 47 49 54 50 53 50 46 47 46 46 45 42 48 66 68 76 67 25 18 27 30 37 39 38 39 37 35 35 34 31 28 27 27 30 30 23 22 28 28
43 49 53 56 57 57 57 56 55 55 55 53 53 52 50 47 43 47 66 74 58 70 52 33 36 39 33 39 45 43 39 38 36 34 27 24 30 31 31 28 28 30 30
54 58 61 59 58 61 62 64 64 62 60 62 62 59 56 53 50 45 54 59 66 74 63 59 56 53 43 46 51 50 46 43 41 36 32 28 22 16 17 15 21 22 21
52 57 64 69 71 70 71 70 71 73 68 67 67 66 62 59 55 55 56 62 61 60 82 70 76 70 56 48 62 50 48 46 44 37 34 30 24 22 19 18 19 21 22
67 74 75 77 79 76 74 71 72 72 77 77 74 72 66 64 60 61 62 64 62 70 77 98 112 100 86 74 62 61 64 51 44 40 37 36 32 29 32 25 23 24 26
74 78 81 84 79 75 74 76 74 74 78 77 79 74 71 66 61 61 64 63 63 63 71 74 78 85 86 81 71 75 69 60 48 44 45 46 42 36 39 35 32 29 29
78 81 86 88 86 83 76 77 79 90 79 70 65 66 67 62 66 65 62 62 62 59 65 64 65 67 72 78 83 72 71 59 58 53 48 46 48 46 47 43 42 40 40
84 82 72 70 75 85 93 92 88 75 77 71 69 67 56 55 66 69 74 66 66 61 67 65 60 58 59 61 69 78 84 81 62 59 51 49 47 46 45 44 47 43 46
81 72 80 93 85 80 80 82 75 64 64 77 59 59 67 63 65 70 77 71 66 74 64 65 62 59 53 52 60 69 80 85 86 67 58 52 48 47 46 53 55 53 55
73 92 90 89 79 86 84 84 75 75 67 57 62 66 71 63 62 62 63 74 63 64 71 64 66 61 58 54 52 54 70 75 76 81 75 57 57 53 44 48 49 52 51
92 79 83 93 76 79 76 70 63 57 65 71 65 62 64 69 69 67 68 73 73 68 58 73 61 58 61 60 57 50 53 59 65 57 59 48 51 45 48 49 47 46 46
87 91 81 77 76 75 72 68 61 50 57 63 65 67 70 67 68 67 67 72 75 79 84 68 53 60 37 61 66 62 54 48 51 56 46 47 45 48 51 52 49 46 46
Wind_Direction_850mb
248 248 248 245 272 295 299 293 281 275 263 243 243 244 244 242 237 234 232 229 233 232 233 223 219 217 234 239 237 219 216 229 218 214 233 244 253 273 272 277 250 264 286
249 252 243 227 267 282 286 288 283 272 265 252 247 241 243 242 239 237 235 231 229 236 236 224 223 229 232 227 225 231 236 229 219 219 219 227 236 250 250 247 242 203 237
259 255 242 271 269 273 281 291 296 289 277 263 243 246 244 241 240 237 237 234 231 231 231 227 217 226 226 225 231 233 233 224 215 219 222 223 239 238 265 285 275 263 239
198 235 268 268 276 283 289 297 299 298 291 287 262 241 243 241 239 240 239 235 236 228 230 226 228 215 227 219 234 228 234 227 213 227 236 235 251 241 245 250 245 261 273
266 257 265 279 285 291 299 301 304 305 299 284 264 257 253 247 246 245 244 238 235 242 230 228 222 226 219 222 212 224 220 220 224 236 238 242 238 241 239 249 251 262 260
266 265 274 287 290 296 300 300 302 302 301 298 284 270 259 243 246 248 243 241 234 233 243 227 228 223 226 216 214 220 233 239 234 233 233 236 237 238 246 253 263 259 261
256 271 282 293 300 298 300 299 298 297 296 295 289 281 273 268 256 243 247 245 238 228 226 234 225 224 228 213 224 227 229 233 228 224 232 238 248 249 247 251 256 261 264
270 296 291 295 298 299 301 301 298 296 294 291 290 284 272 268 262 261 247 246 246 239 234 234 230 222 224 226 226 220 224 226 232 236 238 240 246 243 246 248 257 262 257
291 292 296 299 299 301 301 301 296 297 299 296 295 292 282 268 258 247 249 249 237 241 240 234 229 225 221 226 230 227 229 228 238 240 250 249 244 240 245 247 242 243 258
284 296 300 294 296 299 304 308 303 292 295 302 300 299 289 284 274 264 250 241 237 236 245 231 226 223 225 225 222 224 227 232 233 234 238 242 244 247 243 242 242 239 247
293 302 294 291 293 295 302 309 308 301 297 298 304 307 298 277 278 267 258 247 241 235 229 235 225 222 222 218 220 220 225 237 240 236 236 243 245 238 239 239 242 239 244
299 285 287 293 291 291 295 301 305 306 304 302 299 297 310 294 282 279 257 241 220 213 207 209 205 206 207 207 209 213 222 231 236 238 242 240 239 242 240 239 246 244 241
281 275 281 281 289 291 288 292 293 294 297 300 300 294 288 290 270 243 256 249 199 202 202 203 203 204 206 205 208 211 219 225 234 234 243 242 242 244 246 245 246 250 258
282 279 281 284 290 289 286 283 283 285 287 291 291 289 290 285 265 254 293 268 259 196 204 204 203 199 198 202 203 209 213 219 226 231 219 235 229 231 236 240 248 252 255
277 279 281 289 288 283 282 279 282 284 285 288 287 283 282 287 283 254 268 283 295 326 277 230 219 203 198 200 202 204 206 212 217 216 214 227 221 216 215 221 238 237 249
292 297 295 290 289 286 282 279 279 281 282 282 285 284 279 274 275 261 256 264 269 271 272 253 240 252 197 208 206 196 201 204 207 203 196 210 223 226 233 239 249 258 266
293 292 288 288 288 284 280 279 279 276 275 275 279 281 278 271 264 262 258 254 250 251 251 262 244 228 222 226 220 214 197 196 195 190 187 192 220 227 239 261 270 274 288
297 298 296 293 287 286 285 281 280 278 278 280 273 275 271 269 263 253 249 248 242 233 235 243 239 238 229 208 237 213 194 199 188 191 194 198 206 220 219 226 254 266 274
301 296 295 294 293 290 287 281 280 275 274 269 270 268 271 269 261 257 249 246 243 232 230 241 246 243 236 225 212 213 198 202 197 200 208 217 220 222 242 253 260 271 280
299 297 295 293 292 290 290 289 284 276 274 267 267 264 261 265 265 256 256 248 246 242 231 234 237 246 234 225 215 217 208 203 205 211 217 226 227 237 248 260 266 270 283
299 298 297 294 293 292 290 288 286 280 267 266 266 256 254 262 260 261 256 251 247 245 237 232 235 237 239 224 219 218 219 215 216 219 227 232 243 250 252 262 262 275 290
303 302 304 301 297 294 291 286 280 276 280 265 257 253 248 247 257 253 258 259 245 251 242 235 228 226 230 229 225 219 218 221 218 222 229 235 247 251 259 263 269 278 287
308 307 306 302 298 295 292 286 286 280 280 266 262 263 254 253 250 242 245 250 248 244 243 233 227 223 218 219 229 220 224 228 222 221 232 236 242 245 251 260 268 276 281
309 308 305 299 296 298 292 287 281 280 275 256 261 269 256 248 244 238 241 241 241 240 238 228 225 222 221 216 220 223 221 227 228 225 221 228 241 246 247 254 266 275 281
311 307 302 302 299 300 294 294 287 284 272 269 264 256 252 256 244 243 243 239 236 231 232 225 226 222 228 225 217 215 219 221 224 221 220 228 232 238 247 255 262 267 272
308 310 305 303 300 300 297 294 282 276 268 261 260 253 255 245 246 249 246 241 233 236 227 228 224 218 225 218 225 222 224 225 220 216 215 223 228 236 245 252 259 263 266